Météo par heure à Abak

Ce jour, 3 Décembre, Jeudi

Heure Température Précipitation Vent Pression Humidité
00:00 +26°C° 0 mm 1 m/s 753 mmHg 91%
01:00 +26°C° 0 mm 1 m/s 753 mmHg 93%
02:00 +26°C° 0 mm 1 m/s 753 mmHg 93%
03:00 +26°C° 0 mm 1 m/s 753 mmHg 94%
04:00 +24°C° 0 mm 0 m/s 753 mmHg 95%
05:00 +26°C° 0 mm 1 m/s 753 mmHg 94%
06:00 +26°C° 0 mm 1 m/s 754 mmHg 94%
07:00 +26°C° 0 mm 1 m/s 754 mmHg 93%
08:00 +28°C° 0.1 mm 1 m/s 754 mmHg 84%
09:00 +30°C° 0.1 mm 1 m/s 755 mmHg 76%
10:00 +31°C° 0.1 mm 1 m/s 755 mmHg 67%
11:00 +33°C° 0 mm 1 m/s 754 mmHg 60%
12:00 +35°C° 0 mm 1 m/s 754 mmHg 52%
13:00 +35°C° 0 mm 0 m/s 753 mmHg 44%
14:00 +36°C° 0.1 mm 1 m/s 752 mmHg 47%
15:00 +35°C° 0.1 mm 1 m/s 752 mmHg 49%
16:00 +35°C° 0.1 mm 2 m/s 751 mmHg 51%
17:00 +32°C° 0 mm 2 m/s 751 mmHg 61%
18:00 +30°C° 0 mm 2 m/s 752 mmHg 71%
19:00 +28°C° 0 mm 3 m/s 752 mmHg 81%
20:00 +28°C° 0 mm 2 m/s 753 mmHg 83%
21:00 +28°C° 0 mm 2 m/s 753 mmHg 85%
22:00 +27°C° 0 mm 1 m/s 754 mmHg 86%
23:00 +27°C° 0 mm 1 m/s 754 mmHg 87%

Demain, 4 Décembre, Vendredi

Heure Température Précipitation Vent Pression Humidité
00:00 +27°C° 0 mm 1 m/s 754 mmHg 89%
01:00 +27°C° 0 mm 1 m/s 754 mmHg 90%
02:00 +26°C° 0 mm 1 m/s 753 mmHg 91%
03:00 +26°C° 0 mm 1 m/s 753 mmHg 92%
04:00 +26°C° 0 mm 1 m/s 753 mmHg 93%
05:00 +26°C° 0 mm 1 m/s 753 mmHg 93%
06:00 +26°C° 0 mm 1 m/s 754 mmHg 92%
07:00 +26°C° 0 mm 1 m/s 754 mmHg 92%
08:00 +28°C° 0.1 mm 1 m/s 755 mmHg 83%
09:00 +30°C° 0.1 mm 1 m/s 755 mmHg 74%
10:00 +31°C° 0.1 mm 1 m/s 755 mmHg 65%
11:00 +33°C° 0.1 mm 1 m/s 755 mmHg 60%
12:00 +34°C° 0.1 mm 1 m/s 754 mmHg 55%
13:00 +35°C° 0.1 mm 1 m/s 754 mmHg 50%
14:00 +34°C° 0.1 mm 1 m/s 753 mmHg 52%
15:00 +34°C° 0.1 mm 2 m/s 753 mmHg 54%
16:00 +34°C° 0.1 mm 2 m/s 752 mmHg 57%
17:00 +31°C° 0.1 mm 2 m/s 752 mmHg 65%
18:00 +29°C° 0.1 mm 2 m/s 753 mmHg 74%
19:00 +28°C° 0.1 mm 3 m/s 753 mmHg 82%
20:00 +27°C° 0 mm 2 m/s 753 mmHg 85%
21:00 +27°C° 0 mm 2 m/s 754 mmHg 87%
22:00 +27°C° 0 mm 2 m/s 754 mmHg 89%
23:00 +27°C° 0 mm 1 m/s 754 mmHg 90%

Après-demain, 5 Décembre, Samedi

Heure Température Précipitation Vent Pression Humidité
00:00 +26°C° 0 mm 1 m/s 754 mmHg 92%
01:00 +26°C° 0 mm 1 m/s 754 mmHg 93%
02:00 +26°C° 0 mm 1 m/s 753 mmHg 94%
03:00 +26°C° 0 mm 1 m/s 753 mmHg 94%
04:00 +26°C° 0 mm 1 m/s 753 mmHg 95%
05:00 +26°C° 0.1 mm 1 m/s 753 mmHg 93%
06:00 +26°C° 0.1 mm 1 m/s 754 mmHg 92%
07:00 +27°C° 0.1 mm 1 m/s 754 mmHg 91%
08:00 +28°C° 0.1 mm 1 m/s 754 mmHg 83%
09:00 +30°C° 0.1 mm 1 m/s 755 mmHg 76%
10:00 +31°C° 0.1 mm 2 m/s 755 mmHg 68%
11:00 +32°C° 0.2 mm 2 m/s 754 mmHg 64%
12:00 +33°C° 0.2 mm 1 m/s 754 mmHg 60%
13:00 +34°C° 0.2 mm 1 m/s 753 mmHg 55%
14:00 +34°C° 0.5 mm 2 m/s 753 mmHg 59%
15:00 +32°C° 0.5 mm 2 m/s 752 mmHg 62%
16:00 +32°C° 0.5 mm 2 m/s 752 mmHg 65%
17:00 +30°C° 0.2 mm 2 m/s 752 mmHg 72%
18:00 +29°C° 0.2 mm 2 m/s 752 mmHg 79%
19:00 +27°C° 0.2 mm 2 m/s 753 mmHg 85%
20:00 +27°C° 0.1 mm 2 m/s 753 mmHg 87%
21:00 +27°C° 0.1 mm 2 m/s 754 mmHg 88%
22:00 +27°C° 0.1 mm 2 m/s 754 mmHg 89%
23:00 +26°C° 0 mm 2 m/s 754 mmHg 90%

6 Décembre, Dimanche

Heure Température Précipitation Vent Pression Humidité
00:00 +26°C° 0 mm 1 m/s 754 mmHg 91%
01:00 +26°C° 0 mm 1 m/s 754 mmHg 92%
02:00 +26°C° 0 mm 1 m/s 753 mmHg 93%
03:00 +26°C° 0 mm 1 m/s 753 mmHg 93%
04:00 +25°C° 0 mm 1 m/s 753 mmHg 94%
05:00 +24°C° 0 mm 0 m/s 753 mmHg 94%
06:00 +24°C° 0 mm 0 m/s 753 mmHg 93%
07:00 +24°C° 0 mm 0 m/s 754 mmHg 93%
08:00 +25°C° 0.1 mm 0 m/s 754 mmHg 85%
09:00 +29°C° 0.1 mm 1 m/s 754 mmHg 77%
10:00 +30°C° 0.1 mm 1 m/s 755 mmHg 69%
11:00 +31°C° 0.1 mm 1 m/s 754 mmHg 66%
12:00 +32°C° 0.1 mm 1 m/s 753 mmHg 62%
13:00 +33°C° 0.1 mm 1 m/s 753 mmHg 58%
14:00 +34°C° 0.3 mm 2 m/s 752 mmHg 60%
15:00 +32°C° 0.3 mm 2 m/s 752 mmHg 63%
16:00 +33°C° 0.3 mm 3 m/s 751 mmHg 65%
17:00 +30°C° 0.6 mm 2 m/s 752 mmHg 72%
18:00 +29°C° 0.6 mm 2 m/s 752 mmHg 78%
19:00 +27°C° 0.6 mm 2 m/s 752 mmHg 85%
20:00 +27°C° 0.4 mm 2 m/s 753 mmHg 85%
21:00 +27°C° 0.4 mm 2 m/s 754 mmHg 86%
22:00 +26°C° 0.4 mm 2 m/s 754 mmHg 87%
23:00 +26°C° 0 mm 2 m/s 754 mmHg 88%

7 Décembre, Lundi

Heure Température Précipitation Vent Pression Humidité
00:00 +26°C° 0 mm 2 m/s 754 mmHg 90%
01:00 +26°C° 0 mm 1 m/s 754 mmHg 91%
02:00 +26°C° 0 mm 1 m/s 754 mmHg 92%
03:00 +25°C° 0 mm 1 m/s 753 mmHg 92%
04:00 +25°C° 0 mm 1 m/s 753 mmHg 93%
05:00 +23°C° 0 mm 0 m/s 754 mmHg 93%
06:00 +24°C° 0 mm 0 m/s 754 mmHg 92%
07:00 +24°C° 0 mm 0 m/s 754 mmHg 92%
08:00 +26°C° 0 mm 0 m/s 755 mmHg 84%
09:00 +29°C° 0 mm 1 m/s 755 mmHg 76%
10:00 +31°C° 0 mm 2 m/s 755 mmHg 67%
11:00 +32°C° 0.2 mm 2 m/s 755 mmHg 65%
12:00 +32°C° 0.2 mm 2 m/s 754 mmHg 64%
13:00 +32°C° 0.2 mm 1 m/s 754 mmHg 62%
14:00 +32°C° 0.6 mm 2 m/s 753 mmHg 63%
15:00 +32°C° 0.6 mm 2 m/s 753 mmHg 65%
16:00 +31°C° 0.6 mm 2 m/s 752 mmHg 66%
17:00 +30°C° 0.2 mm 2 m/s 752 mmHg 72%
18:00 +29°C° 0.2 mm 2 m/s 753 mmHg 79%
19:00 +27°C° 0.2 mm 2 m/s 753 mmHg 85%
20:00 +27°C° 0.1 mm 2 m/s 754 mmHg 86%
21:00 +27°C° 0.1 mm 2 m/s 754 mmHg 87%
22:00 +27°C° 0.1 mm 2 m/s 755 mmHg 88%
23:00 +26°C° 0 mm 2 m/s 754 mmHg 89%

8 Décembre, Mardi

Heure Température Précipitation Vent Pression Humidité
00:00 +26°C° 0 mm 1 m/s 754 mmHg 90%
01:00 +26°C° 0 mm 1 m/s 754 mmHg 92%
02:00 +26°C° 0 mm 1 m/s 754 mmHg 93%
03:00 +26°C° 0 mm 1 m/s 753 mmHg 94%
04:00 +25°C° 0 mm 1 m/s 753 mmHg 95%
05:00 +24°C° 0 mm 0 m/s 754 mmHg 94%
06:00 +24°C° 0 mm 0 m/s 754 mmHg 93%
07:00 +24°C° 0 mm 0 m/s 754 mmHg 93%
08:00 +25°C° 0.1 mm 0 m/s 755 mmHg 86%
09:00 +29°C° 0.1 mm 1 m/s 755 mmHg 79%
10:00 +30°C° 0.1 mm 1 m/s 755 mmHg 72%
11:00 +31°C° 0.1 mm 1 m/s 755 mmHg 68%
12:00 +32°C° 0.1 mm 1 m/s 754 mmHg 63%
13:00 +33°C° 0.1 mm 1 m/s 754 mmHg 59%
14:00 +34°C° 0.4 mm 2 m/s 753 mmHg 61%
15:00 +32°C° 0.4 mm 2 m/s 753 mmHg 63%
16:00 +32°C° 0.4 mm 2 m/s 752 mmHg 65%
17:00 +30°C° 1.1 mm 2 m/s 753 mmHg 72%
18:00 +29°C° 1.1 mm 2 m/s 753 mmHg 79%
19:00 +27°C° 1.1 mm 2 m/s 753 mmHg 86%
20:00 +27°C° 0.2 mm 2 m/s 754 mmHg 87%
21:00 +27°C° 0.2 mm 2 m/s 754 mmHg 88%
22:00 +26°C° 0.2 mm 2 m/s 755 mmHg 89%
23:00 +26°C° 0 mm 2 m/s 755 mmHg 90%
Voir plus

Nous avons besoin de votre consentement

Meteoprog et ses fournisseurs de services peuvent stocker et accéder à des données personnelles telles que des cookies, des identifiants d'appareils ou d'autres technologies similaires sur votre appareil et traiter ces données pour personnaliser le contenu et les publicités, ainsi que pour fournir des fonctionnalités de médias sociaux et analyser le trafic.

  • Stocker et/ou accéder à des informations sur votre appareil

    Des cookies, des identifiants d'appareils ou d'autres informations peuvent être stockés ou accessibles sur votre appareil aux fins indiquées ci-dessus.

  • Annonces et contenus personnalisés, mesure des annonces et des contenus, connaissance de l'audience et développement de produits

    Les annonces et le contenu peuvent être personnalisés en fonction d'un profil. D'autres données peuvent être ajoutées pour mieux personnaliser les annonces et le contenu. Les performances des publicités et du contenu peuvent être mesurées. Il est possible d'obtenir des informations sur le public qui a vu les publicités et le contenu. Ces données peuvent être utilisées pour développer ou améliorer l'expérience de l'utilisateur, les systèmes et les logiciels.

En cliquant sur "J'accepte", vous autorisez l'utilisation de cookies, des identifiants d'appareils, des balises web ou d'autres technologies similaires. Vos paramètres peuvent être modifiés dans le navigateur de votre appareil.

Dans certains cas, des intérêts légitimes peuvent être invoqués plutôt qu'un consentement. Vous pouvez en savoir plus à ce sujet dans notre Politique de confidentialité et de cookies.